Location: Austin
(30.3000°N, 97.7500°W)
Time: 22:41:50
(UTC-05:00)

ATLAS 5 CENTAUR R/B - Pass Details

Date: 06 May 2026
Orbit: 360 x 1064 km, 63.3° (Epoch: 13 May)

Event Time Altitude Azimuth Distance (km) Brightness Sun altitude
Rises 21:59:27 0° 315° (NW) 2,979 6.5 -21.3°
Reaches altitude 10° 22:01:48 10° 304° (NW) 2,179 5.5 -21.7°
Maximum altitude 22:06:10 30° 245° (WSW) 1,414 3.6 -22.4°
Enters shadow 22:09:48 16° 195° (SSW) 2,114 4.0 -23.0°
